Deville, LA

10:17 PM CDT on July 24, 2016 (GMT -0500)
Alexandria Esler Regional

Weather History for KESF - April, 2013

Change the Weather History Date:

Friday, April 12, 2013

  Actual Average Record
Temperature  
Mean Temperature 58 °F -  
Max Temperature 77 °F 77 °F 89 °F (1976)
Min Temperature 39 °F 55 °F 35 °F (1989)
Degree Days  
Heating Degree Days 7    
Growing Degree Days 8 (Base 50)    
Moisture  
Dew Point 42 °F    
Average Humidity 70    
Maximum Humidity 93    
Minimum Humidity 25    
Precipitation  
Precipitation 0.00 in - - ()
Sea Level Pressure  
Sea Level Pressure 29.94 in    
Wind  
Wind Speed 1 mph (West)    
Max Wind Speed 9 mph    
Max Gust Speed -    
Visibility 8 miles    
Events      
Averages and records for this station are not official NWS values.
T = Trace of Precipitation, MM = Missing Value Source: NWS Daily Summary

Daily Weather History Graph

Daily Weather History Graph

Search for Another Location

Airport or City:

Trip Planner

Search our weather history database for the weather conditions in past years. The results will help you decide how hot, cold, wet, or windy it might be!

Date:

Astronomy

Apr. 12, 2013 Rise Set
Actual Time 6:44 AM CDT 7:36 PM CDT
Civil Twilight 6:19 AM CDT 8:00 PM CDT
Nautical Twilight 5:50 AM CDT 8:30 PM CDT
Astronomical Twilight 5:20 AM CDT 9:00 PM CDT
Moon 8:02 AM CDT (4/12) 9:57 PM CDT (4/12)
Length of Visible Light 13h 41m
Length of Day
12h 51m
Waxing Crescent, 5% of the Moon is Illuminated
Apr 12
Waxing Crescent
Apr 18
First Quarter
Apr 25
Full
May 2
Last Quarter
May 9
New

Hourly Weather History & Observations

Time (CDT) Temp. Dew Point Humidity Pressure Visibility Wind Dir Wind Speed Gust Speed Precip Events Conditions
12:06 AM 46.4 °F 42.8 °F 87% 29.88 in 2.5 mi Calm Calm - N/A   Partly Cloudy
12:22 AM 46.4 °F 42.8 °F 87% 29.88 in 4.0 mi Calm Calm - N/A   Partly Cloudy
12:53 AM 45.0 °F 43.0 °F 93% 29.88 in 6.0 mi Calm Calm - N/A   Clear
1:13 AM 44.6 °F 42.8 °F 93% 29.88 in 1.2 mi Calm Calm - N/A   Clear
1:25 AM 44.6 °F 42.8 °F 93% 29.88 in 4.0 mi Calm Calm - N/A   Clear
1:53 AM 44.1 °F 42.1 °F 93% 29.88 in 6.0 mi Calm Calm - N/A   Clear
2:09 AM 44.6 °F 42.8 °F 93% 29.89 in 8.0 mi Calm Calm - N/A   Partly Cloudy
2:53 AM 43.0 °F 41.0 °F 93% 29.89 in 4.0 mi Calm Calm - N/A   Partly Cloudy
3:01 AM 42.8 °F 41.0 °F 93% 29.89 in 1.8 mi Calm Calm - N/A   Clear
3:06 AM 42.8 °F 41.0 °F 93% 29.89 in 2.0 mi Calm Calm - N/A   Partly Cloudy
3:16 AM 42.8 °F 41.0 °F 93% 29.89 in 5.0 mi Calm Calm - N/A   Clear
3:53 AM 42.1 °F 39.9 °F 92% 29.90 in 10.0 mi Calm Calm - N/A   Clear
4:53 AM 42.1 °F 39.9 °F 92% 29.92 in 6.0 mi Calm Calm - N/A   Clear
5:31 AM 41.0 °F 39.2 °F 93% 29.92 in 2.5 mi Calm Calm - N/A   Clear
5:39 AM 41.0 °F 39.2 °F 93% 29.93 in 8.0 mi Calm Calm - N/A   Clear
5:53 AM 41.0 °F 39.0 °F 93% 29.93 in 5.0 mi Calm Calm - N/A   Clear
6:53 AM 39.9 °F 37.9 °F 93% 29.96 in 8.0 mi Calm Calm - N/A   Clear
7:28 AM 42.8 °F 41.0 °F 93% 29.97 in 10.0 mi Calm Calm - N/A   Partly Cloudy
7:53 AM 45.0 °F 43.0 °F 93% 29.98 in 10.0 mi Calm Calm - N/A   Clear
8:53 AM 53.1 °F 46.9 °F 80% 29.99 in 10.0 mi Calm Calm - N/A   Clear
9:53 AM 61.0 °F 44.1 °F 54% 30.01 in 10.0 mi Calm Calm - N/A   Clear
10:22 AM 62.6 °F 42.8 °F 48% 30.01 in 10.0 mi Calm Calm - N/A   Partly Cloudy
10:53 AM 64.0 °F 43.0 °F 46% 30.02 in 10.0 mi South 3.5 mph - N/A   Clear
11:53 AM 66.9 °F 39.9 °F 37% 30.01 in 10.0 mi Variable 5.8 mph - N/A   Clear
12:45 PM 69.8 °F 39.2 °F 33% 30.01 in 10.0 mi West 5.8 mph - N/A   Partly Cloudy
12:53 PM 71.1 °F 39.9 °F 32% 30.00 in 10.0 mi Variable 4.6 mph - N/A   Clear
1:53 PM 73.0 °F 41.0 °F 31% 29.98 in 10.0 mi Variable 5.8 mph - N/A   Clear
2:53 PM 75.9 °F 39.0 °F 26% 29.96 in 10.0 mi NW 9.2 mph - N/A   Clear
3:53 PM 75.0 °F 37.9 °F 26% 29.94 in 10.0 mi Variable 5.8 mph - N/A   Clear
4:14 PM 75.2 °F 39.2 °F 27% 29.93 in 10.0 mi Variable 5.8 mph - N/A   Partly Cloudy
4:53 PM 75.9 °F 37.9 °F 25% 29.92 in 10.0 mi Variable 4.6 mph - N/A   Clear
5:53 PM 77.0 °F 39.0 °F 25% 29.92 in 10.0 mi Calm Calm - N/A   Clear
6:06 PM 75.2 °F 37.4 °F 25% 29.92 in 10.0 mi Calm Calm - N/A   Partly Cloudy
6:53 PM 71.1 °F 48.9 °F 45% 29.92 in 10.0 mi Calm Calm - N/A   Clear
7:53 PM 62.1 °F 50.0 °F 65% 29.94 in 10.0 mi Calm Calm - N/A   Clear
8:53 PM 57.0 °F 50.0 °F 77% 29.96 in 10.0 mi Calm Calm - N/A   Clear
9:53 PM 53.1 °F 48.9 °F 86% 29.98 in 10.0 mi Calm Calm - N/A   Clear
10:53 PM 52.0 °F 48.0 °F 86% 29.99 in 10.0 mi Calm Calm - N/A   Clear
11:53 PM 51.1 °F 48.0 °F 89% 30.00 in 10.0 mi Calm Calm - N/A   Clear